YN1ZSC-13 Weather Reports


time (UTC)temp
C
wind
direction
speed
KPH
gust
KPH
rain 1hr
cm
rain 24hr
cm
rain mn
cm
humidity
%
barometer
mb
20260502233053 31 130 25.7 0.0 0.00 0.00 0.00 43 1008.0
20260502232052 32 110 20.9 0.0 0.00 0.00 0.00 41 1007.0
20260502231052 32 110 20.9 0.0 0.00 0.00 0.00 41 1007.0
20260502230051 32 110 20.9 0.0 0.00 0.00 0.00 41 1007.0
20260502225051 33 110 20.9 0.0 0.00 0.00 0.00 41 1007.0
20260502224050 33 110 20.9 0.0 0.00 0.00 0.00 41 1007.0
20260502223050 32 120 24.1 0.0 0.00 0.00 0.00 41 1006.0
20260502222049 32 120 24.1 0.0 0.00 0.00 0.00 41 1006.0
20260502221049 32 120 24.1 0.0 0.00 0.00 0.00 41 1006.0
20260502220049 32 120 24.1 0.0 0.00 0.00 0.00 41 1006.0
20260502215048 32 120 24.1 0.0 0.00 0.00 0.00 41 1006.0
20260502214047 32 120 24.1 0.0 0.00 0.00 0.00 41 1006.0
20260502213047 32 120 24.1 0.0 0.00 0.00 0.00 41 1006.0
20260502212046 32 120 17.7 0.0 0.00 0.00 0.00 41 1007.0
20260502211045 32 120 17.7 0.0 0.00 0.00 0.00 41 1007.0
20260502210045 33 120 17.7 0.0 0.00 0.00 0.00 41 1007.0
20260502205044 33 120 17.7 0.0 0.00 0.00 0.00 41 1007.0
20260502204044 33 120 17.7 0.0 0.00 0.00 0.00 41 1007.0
20260502203043 33 120 17.7 0.0 0.00 0.00 0.00 41 1007.0
20260502202043 33 80 6.4 0.0 0.00 0.00 0.00 41 1008.0
20260502201042 33 80 6.4 0.0 0.00 0.00 0.00 41 1008.0
20260502200042 33 80 6.4 0.0 0.00 0.00 0.00 41 1008.0
20260502195041 33 80 6.4 0.0 0.00 0.00 0.00 41 1008.0
20260502194041 34 80 6.4 0.0 0.00 0.00 0.00 41 1008.0
20260502193040 31 100 8.0 0.0 0.00 0.00 0.00 43 1008.0
20260502192040 31 100 8.0 0.0 0.00 0.00 0.00 44 1009.0
20260502191039 32 100 8.0 0.0 0.00 0.00 0.00 44 1009.0
20260502190039 32 100 9.7 0.0 0.00 0.00 0.00 44 1009.0
20260502185038 33 100 9.7 0.0 0.00 0.00 0.00 44 1009.0
20260502184038 31 100 9.7 0.0 0.00 0.00 0.00 47 1009.0
20260502183037 31 100 9.7 0.0 0.00 0.00 0.00 47 1009.0
20260502182037 31 50 6.4 0.0 0.00 0.00 0.00 49 1010.0
20260502181036 31 50 6.4 0.0 0.00 0.00 0.00 49 1010.0
20260502164031 31 30 6.4 0.0 0.00 0.00 0.00 56 1011.0
20260502163032 31 30 6.4 0.0 0.00 0.00 0.00 57 1011.0
20260502162031 28 70 8.0 0.0 0.00 0.00 0.00 62 1012.0
20260502161030 29 70 9.7 0.0 0.00 0.00 0.00 62 1012.0
20260502152027 28 81 8.0 11.3 0.00 0.00 0.00 70 1012.0
20260502151027 27 90 14.5 0.0 0.00 0.00 0.00 70 1012.0
20260502123019 25 120 6.4 0.0 0.00 0.00 0.00 84 1011.0
20260502122018 25 120 6.4 0.0 0.00 0.00 0.00 84 1011.0
20260502121018 23 108 8.0 12.9 0.00 0.00 0.00 88 1011.0
20260502115017 23 108 8.0 12.9 0.00 0.00 0.00 88 1011.0
20260502114016 23 108 8.0 12.9 0.00 0.00 0.00 88 1011.0
20260502113015 23 108 8.0 12.9 0.00 0.00 0.00 88 1011.0
20260502112015 23 108 8.0 12.9 0.00 0.00 0.00 88 1010.0
20260502111015 23 108 8.0 12.9 0.00 0.00 0.00 88 1010.0
20260502110014 23 108 8.0 12.9 0.00 0.00 0.00 88 1010.0
20260502105014 23 108 8.0 12.9 0.00 0.00 0.00 88 1010.0
20260502104013 23 108 8.0 12.9 0.00 0.00 0.00 88 1010.0
20260502103013 24 108 8.0 12.9 0.00 0.00 0.00 87 1010.0
20260502102012 23 106 9.7 14.5 0.00 0.00 0.00 88 1010.0
20260502101012 23 80 6.4 0.0 0.00 0.00 0.00 88 1010.0
20260502091009 23 108 9.7 16.1 0.00 0.00 0.00 84 1010.0
20260502071003 25 120 12.9 0.0 0.00 0.00 0.00 81 1010.0
20260502070002 26 120 14.5 0.0 0.00 0.00 0.00 80 1010.0
20260502065001 26 120 14.5 0.0 0.00 0.00 0.00 79 1010.0
20260502064001 26 120 14.5 0.0 0.00 0.00 0.00 78 1010.0
20260502063000 27 115 9.7 19.3 0.00 0.00 0.00 76 1010.0
20260502062000 25 118 11.3 20.9 0.00 0.00 0.00 79 1010.0
20260502060959 25 118 11.3 20.9 0.00 0.00 0.00 79 1010.0
20260502055959 25 118 11.3 20.9 0.00 0.00 0.00 79 1010.0
20260502054958 25 118 11.3 20.9 0.00 0.00 0.00 78 1010.0
20260502053958 26 118 11.3 20.9 0.00 0.00 0.00 76 1011.0
20260502052957 25 117 12.9 22.5 0.00 0.00 0.00 77 1011.0
20260502051957 25 140 12.9 0.0 0.00 0.00 0.00 77 1011.0
20260502050956 25 140 12.9 0.0 0.00 0.00 0.00 77 1011.0
20260502045956 25 140 14.5 0.0 0.00 0.00 0.00 77 1011.0
20260502044955 25 140 14.5 0.0 0.00 0.00 0.00 77 1011.0
20260502043955 26 140 14.5 0.0 0.00 0.00 0.00 76 1010.0
20260502042954 26 140 14.5 0.0 0.00 0.00 0.00 75 1010.0
20260502041954 25 140 17.7 0.0 0.00 0.00 0.00 74 1010.0
20260502040953 25 140 17.7 0.0 0.00 0.00 0.00 74 1010.0
20260502035953 26 140 17.7 0.0 0.00 0.00 0.00 74 1010.0
20260502034952 26 140 17.7 0.0 0.00 0.00 0.00 74 1010.0
20260502033952 26 140 17.7 0.0 0.00 0.00 0.00 75 1010.0
20260502032951 26 140 17.7 0.0 0.00 0.00 0.00 75 1010.0
20260502031951 26 140 17.7 0.0 0.00 0.00 0.00 75 1010.0
20260502030950 26 140 17.7 0.0 0.00 0.00 0.00 75 1010.0
20260502025950 27 140 17.7 0.0 0.00 0.00 0.00 75 1010.0
20260502024949 27 140 17.7 0.0 0.00 0.00 0.00 75 1010.0
20260502023949 27 140 17.7 0.0 0.00 0.00 0.00 76 1010.0
20260502022948 27 140 17.7 0.0 0.00 0.00 0.00 77 1009.0
20260502021948 27 140 17.7 0.0 0.00 0.00 0.00 78 1009.0
20260502020947 27 140 17.7 0.0 0.00 0.00 0.00 78 1009.0
20260502015947 27 140 17.7 0.0 0.00 0.00 0.00 77 1009.0
20260502014946 27 140 17.7 0.0 0.00 0.00 0.00 76 1009.0
20260502013946 27 140 17.7 0.0 0.00 0.00 0.00 74 1008.0
20260502012945 27 140 17.7 0.0 0.00 0.00 0.00 73 1007.0
20260502011945 27 140 17.7 0.0 0.00 0.00 0.00 72 1007.0
20260502010944 27 140 17.7 0.0 0.00 0.00 0.00 70 1007.0
20260502005944 28 140 17.7 0.0 0.00 0.00 0.00 70 1007.0
20260502004943 28 140 17.7 0.0 0.00 0.00 0.00 70 1007.0
20260502003942 28 140 17.7 0.0 0.00 0.00 0.00 70 1007.0
20260502002942 29 140 17.7 0.0 0.00 0.00 0.00 70 1007.0
20260502001941 28 140 17.7 0.0 0.00 0.00 0.00 62 1007.0
20260502000941 29 157 4.8 12.9 0.00 0.00 0.00 60 1007.0
20260501235940 28 110 32.2 0.0 0.00 0.00 0.00 64 1007.0
20260501234940 28 110 32.2 0.0 0.00 0.00 0.00 63 1007.0
20260501233939 29 110 32.2 0.0 0.00 0.00 0.00 62 1006.0